Location: Orson Pratt Observatory
(40.2472°N, 111.6506°W)
Time: 10:26:35
(UTC-06:00)

SEEDS - Visible Passes

Search period start: 15 October 2019 00:00
Search period end: 25 October 2019 00:00
Orbit: 586 x 604 km, 97.5° (Epoch: 14 October)

Date Brightness Start Highest point End Pass type
(mag) Time Alt. Az. Time Alt. Az. Time Alt. Az.
15 Oct ? 06:37:07 10° NE 06:40:26 22° E 06:43:44 10° SSE visible
16 Oct ? 06:46:27 10° NE 06:50:06 29° E 06:53:42 10° SSE visible
16 Oct ? 19:12:12 10° SSW 19:16:04 35° W 19:19:58 10° NNW visible
17 Oct ? 06:55:51 10° NNE 06:59:44 37° E 07:03:35 10° SSE visible
17 Oct ? 19:22:07 10° SSW 19:25:43 27° W 19:29:21 10° NW visible
18 Oct ? 07:05:19 10° NNE 07:09:22 48° E 07:13:22 10° S visible
18 Oct ? 19:32:08 10° SW 19:35:23 21° W 19:38:38 10° NW visible
19 Oct ? 19:42:19 10° SW 19:45:03 17° W 19:47:48 10° NW visible
20 Oct ? 19:52:46 10° WSW 19:54:44 13° W 19:56:42 10° WNW visible
22 Oct ? 06:10:38 10° ENE 06:11:44 11° E 06:12:50 10° ESE visible
23 Oct ? 06:19:09 10° ENE 06:21:26 14° E 06:23:40 10° SE visible
24 Oct ? 06:28:11 10° NE 06:31:05 18° E 06:33:59 10° SE visible
